Find Starlink 6224

NORAD ID: 56425 Int'l Des: 2023-061 Owner: SPXS Country: US Constellation: starlink operational
LEOCIRCULAR

Live Position

Loading 3D Globe...

About Starlink 6224

Description loading...

Upcoming Passes

Passes for default location (London). Set your location on the main map for personalized predictions.

Altitude History

Loading altitude history...

Two-Line Element Set

1 56425U 23061BD 26107.25003472 -.00000254 00000-0 -76104-6 0 9990
2 56425 43.0001 321.3809 0002515 238.2083 50.5144 15.18414657 5845
Epoch: Apr 17, 2026 • Age: 7 hours

Current Status

Altitude 510.6 km
Velocity 7.61 km/s
Sub-Earth Point 24.03°N, 66.75°E
Launch Date May 4, 2023
Age 2.9 years
Type internet

Technical Details

Classification Payload
Mass 305.00 kg
Dry Mass 290.00 kg
Total Mass 305.00 kg
Length 0.20 m
Diameter 2.80 m
Span 9.00 m
Shape Box + pan
Manufacturer SPXS
Bus Type Starlink
Phase Status In Orbit
Owner/State SPXS/US

Most Searched